THEMIS D

Last updated on Tue Jan 14 2025 00:02:33 GMT+0000 (Coordinated Universal Time)

1 30797U 07004D 25013.28930295 -.00000149 00000+0 00000+0 0 9999 2 30797 2.3344 245.2431 8406947 7.5947 96.3045 0.87839190 36501
UTC large
Height (km)
Speed (km/s)
/
Latitude / Longitude
Inclination (degrees)
Orbital Period (minutes)
Azimuth
Elevation
Range (km)
Doppler Factor

Next 0 passes for location: London (51.5072 / 0.1276)

Sorry there are no passes over London.